EW0364 Weather Reports


time (UTC)temp
F
wind
direction
speed
knots
gust
knots
rain 1hr
in
rain 24hr
in
rain mn
in
humidity
%
barometer
mb
20260505065859 52 188 0.9 3.5 0.00 0.00 0.00 87 1011.3
20260505064059 52 208 1.7 6.1 0.00 0.00 0.00 87 1011.3
20260505063159 52 202 2.6 6.1 0.00 0.00 0.00 87 1011.3
20260505062259 52 216 2.6 7.0 0.00 0.00 0.00 87 1011.4
20260505061359 52 229 3.5 8.7 0.00 0.00 0.00 87 1011.4
20260505060459 52 241 2.6 7.8 0.00 0.00 0.00 87 1011.4
20260505055559 52 219 2.6 7.8 0.00 0.00 0.00 86 1011.4
20260505054659 52 216 3.5 10.4 0.00 0.00 0.00 87 1011.4
20260505053759 52 219 2.6 7.8 0.00 0.00 0.00 86 1011.4
20260505052859 52 243 1.7 6.1 0.00 0.00 0.00 86 1011.5
20260505051959 53 249 3.5 12.2 0.00 0.00 0.00 86 1011.4
20260505051059 53 243 3.5 13.9 0.00 0.00 0.00 86 1011.6
20260505050159 53 242 3.5 8.7 0.00 0.00 0.00 86 1011.7
20260505041658 53 204 3.5 10.4 0.00 0.00 0.00 85 1011.8
20260505040758 53 203 4.3 10.4 0.00 0.00 0.00 85 1011.8
20260505034958 53 197 4.3 13.0 0.00 0.00 0.00 84 1011.8
20260505031359 53 205 2.6 7.0 0.00 0.00 0.00 83 1012.1
20260505030458 53 204 3.5 9.6 0.00 0.00 0.00 83 1012.0
20260505024659 53 229 2.6 7.8 0.00 0.00 0.00 82 1012.1
20260505023758 53 242 3.5 8.7 0.00 0.00 0.00 82 1012.0
20260505022858 54 231 4.3 9.6 0.00 0.00 0.00 82 1012.2
20260505021958 54 243 5.2 12.2 0.00 0.00 0.00 81 1012.1
20260505021058 54 247 4.3 12.2 0.00 0.00 0.00 81 1012.1
20260505020158 54 243 4.3 11.3 0.00 0.00 0.00 81 1012.0
20260505015258 54 244 4.3 9.6 0.00 0.00 0.00 81 1012.0
20260505014358 54 240 4.3 13.0 0.00 0.00 0.00 80 1012.0
20260505013458 54 226 5.2 14.8 0.00 0.00 0.00 80 1011.9
20260505012558 54 226 6.1 13.9 0.00 0.00 0.00 80 1011.7
20260505005858 54 224 6.1 13.0 0.00 0.00 0.00 78 1011.3
20260505004958 54 237 7.0 19.1 0.00 0.00 0.00 76 1011.2
20260505004059 55 236 7.8 19.1 0.00 0.00 0.00 75 1011.1
20260505003158 55 229 8.7 19.1 0.00 0.00 0.00 75 1011.0
20260505002258 55 237 7.0 19.1 0.00 0.00 0.00 73 1010.8
20260505001358 55 241 7.8 19.1 0.00 0.00 0.00 72 1010.6
20260505000458 56 232 7.8 17.4 0.00 0.00 0.00 71 1010.4
20260504235558 56 229 7.8 19.1 0.00 0.00 0.00 71 1010.3
20260504233758 56 239 7.8 19.1 0.00 0.00 0.00 71 1010.2
20260504231958 56 228 7.0 17.4 0.00 0.00 0.00 70 1009.9
20260504231058 57 241 7.0 16.5 0.00 0.00 0.00 69 1010.0
20260504230158 57 231 8.7 20.0 0.00 0.00 0.00 68 1010.0
20260504225258 57 240 5.2 13.9 0.00 0.00 0.00 67 1009.9
20260504224358 58 247 7.8 17.4 0.00 0.00 0.00 66 1009.8
20260504222558 58 221 8.7 20.0 0.00 0.00 0.00 66 1009.8
20260504221658 58 229 7.8 20.0 0.00 0.00 0.00 64 1009.8
20260504220758 58 212 7.8 15.6 0.00 0.00 0.00 63 1009.7
20260504214958 59 220 7.8 20.9 0.00 0.00 0.00 62 1009.8
20260504214058 59 219 7.8 17.4 0.00 0.00 0.00 63 1009.8
20260504213158 59 223 8.7 20.0 0.00 0.00 0.00 63 1009.7
20260504212258 59 215 8.7 23.5 0.00 0.00 0.00 64 1009.7
20260504211358 59 216 9.6 23.5 0.00 0.00 0.00 63 1009.9
20260504210458 59 217 9.6 21.7 0.00 0.00 0.00 62 1009.7
20260504205558 60 219 8.7 20.0 0.00 0.00 0.00 61 1009.6
20260504204657 60 227 9.6 20.0 0.00 0.00 0.00 60 1009.8
20260504202858 60 227 8.7 17.4 0.00 0.00 0.00 59 1009.5
20260504201959 61 239 8.7 18.2 0.00 0.00 0.00 59 1009.5
20260504201057 61 234 7.8 20.9 0.00 0.00 0.00 56 1009.4
20260504195257 62 229 11.3 28.7 0.00 0.00 0.00 52 1009.4
20260504194358 62 238 10.4 24.3 0.00 0.00 0.00 49 1009.5
20260504193457 62 221 10.4 28.7 0.00 0.00 0.00 50 1009.7
20260504192558 64 225 9.6 25.2 0.00 0.00 0.00 48 1009.5
20260504191658 64 225 10.4 19.1 0.00 0.00 0.00 50 1009.7
20260504190757 64 234 10.4 24.3 0.00 0.00 0.00 44 1009.9
20260504185858 64 251 12.2 25.2 0.00 0.00 0.00 44 1009.8
20260504184957 65 252 11.3 28.7 0.00 0.00 0.00 43 1009.9
20260504184057 65 251 9.6 28.7 0.00 0.00 0.00 41 1009.9
20260504183157 65 235 9.6 21.7 0.00 0.00 0.00 44 1010.0
20260504182257 65 245 9.6 20.0 0.00 0.00 0.00 46 1010.0
20260504181357 65 222 9.6 19.1 0.00 0.00 0.00 49 1009.8
20260504175557 65 228 7.8 26.9 0.00 0.00 0.00 50 1009.6
20260504174657 65 222 9.6 19.1 0.00 0.00 0.00 50 1009.7
20260504173757 64 211 8.7 20.0 0.00 0.00 0.00 50 1009.7
20260504172857 64 223 8.7 19.1 0.00 0.00 0.00 49 1009.9
20260504171957 64 210 7.8 23.5 0.00 0.00 0.00 49 1009.9
20260504171057 65 217 7.0 17.4 0.00 0.00 0.00 47 1009.8
20260504170157 65 243 9.6 19.1 0.00 0.00 0.00 44 1010.0
20260504150457 62 246 7.8 20.0 0.00 0.00 0.00 49 1010.9
20260504141057 62 232 7.0 13.9 0.00 0.00 0.00 52 1011.2
20260504140157 61 220 7.8 15.6 0.00 0.00 0.00 52 1011.1
20260504130758 60 278 7.0 16.5 0.00 0.00 0.00 48 1011.4
20260504110156 51 258 3.5 8.7 0.00 0.01 0.00 67 1011.5
20260504081956 48 226 0.9 1.7 0.00 0.01 0.00 69 1011.1
20260504081056 48 226 0.9 2.6 0.00 0.01 0.00 69 1011.0
20260504080156 48 226 0.0 2.6 0.00 0.01 0.00 68 1011.0